sat.trackr.live / text

‹ back to catalog

MARS-1

NORAD 68830 · 2026-067CW

PAYLOAD ACTIVE UNKNOWN

§ Identity

Operator
Country
US
Launch date
2026-03-30
Launch site
AFWTR
Launch vehicle
Mass (kg)
RCS (m²)

External: N2YO · Heavens-Above · Gunter

§ Orbital elements

Epoch: 2026-09-20T03:37:57.725184Z

Period
94.73 min
Inclination
97.4624°
Eccentricity
0.0004200
Mean motion
15.20084084 rev/d
Perigee alt
502.7 km
Apogee alt
508.5 km
Semi-major
6,883.7 km
B*
2.1998e-4
RAAN
220.4592°
Arg perigee
116.8630°
Mean anomaly
243.3035°
Rev number
6,691

§ Raw data

MARS-11 68830U 26067CW  26263.15136256  .00004681  00000+0  21998-3 0  99942 68830  97.4624 220.4592 0004200 116.8630 243.3035 15.20084084 66918

JSON: /api/v1/satellites/68830 · /tle

For live sub-satellite position, see the globe view (requires WebGL).

§ Visibility from observer

Set your observer location to see the next 7 days of passes ≥ 10°. The values pass through the URL so the page stays shareable.

No JS? Fill the form by hand. The geolocation button needs JavaScript.